QPF
0.00 0.00 0.00 0.00 0.00 0.00 0.00 0.00 0.00 0.00 0.00 0.00 0.00 0.00 0.00 0.00 0.00 0.00 0.00 0.00 0.00 0.00 0.00 0.00 0.00 0.00 0.00 0.00 0.00 0.00 0.00 0.00 0.00 0.00 0.00 0.00 0.00 0.00 0.00 0.00 0.00 0.00 0.00 0.00
0.00 0.00 0.00 0.00 0.00 0.00 0.00 0.00 0.00 0.00 0.00 0.00 0.00 0.00 0.00 0.00 0.00 0.00 0.00 0.00 0.00 0.00 0.00 0.00 0.00 0.00 0.00 0.00 0.00 0.00 0.00 0.00 0.00 0.00 0.00 0.00 0.00 0.00 0.00 0.00 0.00 0.00 0.00 0.00
0.00 0.00 0.00 0.00 0.00 0.00 0.00 0.00 0.00 0.00 0.00 0.00 0.00 0.00 0.00 0.00 0.00 0.00 0.00 0.00 0.00 0.00 0.00 0.00 0.00 0.00 0.00 0.00 0.00 0.00 0.00 0.00 0.00 0.00 0.00 0.00 0.00 0.00 0.00 0.00 0.00 0.00 0.00 0.00
0.00 0.00 0.00 0.00 0.00 0.00 0.00 0.00 0.00 0.00 0.00 0.00 0.00 0.00 0.00 0.00 0.00 0.00 0.00 0.00 0.00 0.00 0.00 0.00 0.00 0.00 0.00 0.00 0.00 0.00 0.00 0.00 0.00 0.00 0.00 0.00 0.00 0.00 0.00 0.00 0.00 0.00 0.00 0.00
0.00 0.00 0.00 0.00 0.00 0.00 0.00 0.00 0.00 0.00 0.00 0.00 0.00 0.00 0.00 0.00 0.00 0.00 0.00 0.00 0.00 0.00 0.00 0.00 0.00 0.00 0.00 0.00 0.00 0.00 0.00 0.00 0.00 0.00 0.00 0.00 0.00 0.00 0.00 0.00 0.00 0.00 0.00 0.00
0.00 0.00 0.00 0.00 0.00 0.00 0.00 0.00 0.00 0.00 0.00 0.00 0.00 0.00 0.00 0.00 0.00 0.00 0.00 0.00 0.00 0.00 0.00 0.00 0.00 0.00 0.00 0.00 0.00 0.00 0.00 0.00 0.00 0.00 0.00 0.00 0.00 0.00 0.00 0.00 0.00 0.00 0.00 0.00
0.00 0.00 0.00 0.00 0.00 0.00 0.00 0.00 0.00 0.00 0.00 0.00 0.00 0.00 0.00 0.00 0.00 0.00 0.00 0.00 0.00 0.00 0.00 0.00 0.00 0.00 0.00 0.00 0.00 0.00 0.00 0.00 0.00 0.00 0.00 0.00 0.00 0.00 0.00 0.00 0.00 0.00 0.00 0.00
0.00 0.00 0.00 0.00 0.00 0.00 0.00 0.00 0.00 0.00 0.00 0.00 0.00 0.00 0.00 0.00 0.00 0.00 0.00 0.00 0.00 0.00 0.00 0.00 0.00 0.00 0.00 0.00 0.00 0.00 0.00 0.00 0.00 0.00 0.00 0.00 0.00 0.00 0.00 0.00 0.00 0.00 0.00 0.00
0.00 0.00 0.00 0.00 0.00 0.00 0.00 0.00 0.00 0.00 0.00 0.00 0.00 0.00 0.00 0.00 0.00 0.00 0.00 0.00 0.00 0.00 0.00 0.00 0.00 0.00 0.00 0.00 0.00 0.00 0.00 0.00 0.00 0.00 0.00 0.00 0.00 0.00 0.00 0.00 0.00 0.00 0.00 0.00
0.00 0.00 0.00 0.00 0.00 0.00 0.00 0.00 0.00 0.00 0.00 0.00 0.00 0.00 0.00 0.00 0.00 0.00 0.00 0.00 0.00 0.00 0.00 0.00 0.00 0.00 0.00 0.00 0.00 0.00 0.00 0.00 0.00 0.00 0.00 0.00 0.00 0.00 0.00 0.00 0.00 0.00 0.00 0.00
0.00 0.00 0.00 0.00 0.00 0.00 0.00 0.00 0.00 0.00 0.00 0.01 0.01 0.00 0.00 0.00 0.00 0.00 0.00 0.00 0.00 0.00 0.00 0.00 0.00 0.00 0.00 0.00 0.00 0.00 0.00 0.00 0.00 0.00 0.00 0.00 0.00 0.00 0.00 0.00 0.00 0.00 0.00 0.00
0.00 0.00 0.00 0.00 0.00 0.00 0.00 0.00 0.00 0.00 0.00 0.00 0.00 0.00 0.00 0.00 0.00 0.00 0.00 0.00 0.00 0.00 0.00 0.00 0.00 0.00 0.00 0.00 0.00 0.00 0.00 0.00 0.00 0.00 0.00 0.00 0.00 0.00 0.00 0.00 0.00 0.00 0.00 0.00
0.00 0.00 0.00 0.00 0.00 0.00 0.00 0.00 0.00 0.00 0.00 0.00 0.00 0.00 0.00 0.00 0.00 0.00 0.00 0.00 0.00 0.00 0.00 0.00 0.00 0.00 0.00 0.00 0.00 0.00 0.00 0.00 0.00 0.00 0.00 0.00 0.00 0.00 0.00 0.00 0.00 0.00 0.00 0.00
0.00 0.00 0.00 0.00 0.00 0.00 0.00 0.00 0.00 0.00 0.00 0.00 0.00 0.00 0.00 0.00 0.00 0.00 0.00 0.00 0.00 0.00 0.00 0.00 0.00 0.00 0.00 0.00 0.00 0.00 0.00 0.00 0.00 0.00 0.00 0.00 0.00 0.00 0.00 0.00 0.00 0.00 0.00 0.00
0.00 0.00 0.00 0.00 0.00 0.00 0.00 0.00 0.00 0.00 0.00 0.00 0.00 0.00 0.00 0.00 0.00 0.00 0.00 0.00 0.00 0.00 0.00 0.00 0.00 0.00 0.00 0.00 0.00 0.00 0.00 0.00 0.00 0.00 0.00 0.00 0.00 0.00 0.00 0.00 0.00 0.00 0.00 0.00
0.00 0.00 0.00 0.00 0.00 0.00 0.00 0.00 0.00 0.00 0.00 0.00 0.00 0.00 0.00 0.00 0.00 0.00 0.00 0.00 0.00 0.00 0.00 0.00 0.00 0.00 0.00 0.00 0.00 0.00 0.00 0.00 0.00 0.00 0.00 0.00 0.00 0.00 0.00 0.00 0.00 0.00 0.00 0.00
0.00 0.00 0.00 0.00 0.00 0.00 0.00 0.00 0.00 0.00 0.00 0.00 0.00 0.00 0.00 0.00 0.00 0.00 0.00 0.00 0.00 0.00 0.00 0.00 0.00 0.00 0.00 0.00 0.00 0.00 0.00 0.00 0.00 0.00 0.00 0.00 0.00 0.00 0.00 0.00 0.00 0.00 0.00 0.00
0.00 0.00 0.00 0.00 0.00 0.00 0.00 0.00 0.00 0.00 0.00 0.00 0.00 0.00 0.00 0.00 0.00 0.00 0.00 0.00 0.00 0.00 0.00 0.00 0.00 0.00 0.00 0.00 0.00 0.00 0.00 0.00 0.00 0.00 0.00 0.00 0.00 0.00 0.00 0.00 0.00 0.00 0.00 0.00
0.00 0.00 0.00 0.00 0.00 0.00 0.00 0.00 0.00 0.00 0.00 0.00 0.00 0.00 0.00 0.00 0.00 0.00 0.00 0.00 0.00 0.00 0.00 0.00 0.00 0.00 0.00 0.00 0.00 0.00 0.00 0.00 0.00 0.00 0.00 0.00 0.00 0.00 0.00 0.00 0.00 0.00 0.00 0.00
0.00 0.00 0.00 0.00 0.00 0.00 0.00 0.00 0.00 0.00 0.00 0.00 0.00 0.00 0.00 0.00 0.00 0.00 0.00 0.00 0.00 0.00 0.00 0.00 0.00 0.00 0.00 0.00 0.00 0.00 0.00 0.00 0.00 0.00 0.00 0.00 0.00 0.00 0.00 0.00 0.00 0.00 0.00 0.00
0.00 0.00 0.00 0.00 0.00 0.00 0.00 0.00 0.00 0.00 0.00 0.00 0.00 0.00 0.00 0.01 0.04 0.01 0.00 0.00 0.00 0.00 0.00 0.00 0.00 0.00 0.00 0.00 0.00 0.00 0.00 0.00 0.00 0.00 0.00 0.00 0.00 0.00 0.00 0.00 0.00 0.00 0.00 0.00
0.00 0.00 0.00 0.00 0.00 0.00 0.00 0.00 0.00 0.00 0.00 0.00 0.00 0.00 0.00 0.00 0.00 0.00 0.00 0.00 0.00 0.00 0.00 0.00 0.00 0.00 0.00 0.00 0.00 0.00 0.00 0.00 0.00 0.00 0.00 0.00 0.00 0.00 0.00 0.00 0.00 0.00 0.00 0.00
0.00 0.00 0.00 0.00 0.00 0.00 0.00 0.00 0.00 0.00 0.00 0.00 0.00 0.00 0.00 0.00 0.00 0.00 0.00 0.00 0.00 0.00 0.00 0.00 0.00 0.00 0.00 0.00 0.00 0.00 0.00 0.00 0.00 0.00 0.00 0.00 0.00 0.00 0.00 0.00 0.00 0.00 0.00 0.00
0.00 0.00 0.00 0.00 0.00 0.00 0.00 0.00 0.00 0.00 0.00 0.00 0.00 0.00 0.00 0.00 0.00 0.00 0.00 0.00 0.00 0.00 0.00 0.00 0.00 0.00 0.00 0.00 0.00 0.00 0.00 0.00 0.00 0.00 0.00 0.00 0.00 0.00 0.00 0.00 0.00 0.00 0.00 0.00
0.00 0.00 0.00 0.00 0.00 0.00 0.00 0.00 0.00 0.00 0.00 0.00 0.00 0.00 0.00 0.00 0.00 0.00 0.00 0.00 0.00 0.00 0.00 0.00 0.00 0.00 0.00 0.00 0.00 0.00 0.00 0.00 0.00 0.00 0.00 0.00 0.00 0.00 0.00 0.00 0.00 0.00 0.00 0.00
0.00 0.00 0.00 0.00 0.00 0.00 0.00 0.00 0.00 0.00 0.00 0.00 0.00 0.00 0.00 0.00 0.00 0.00 0.00 0.00 0.00 0.00 0.00 0.00 0.00 0.00 0.00 0.00 0.00 0.00 0.00 0.00 0.00 0.00 0.00 0.00 0.00 0.00 0.00 0.00 0.00 0.00 0.00 0.00
MSLP
1014.78 1015.38 1016.01 1016.15 1016.20 1016.41 1016.53 1016.70 1016.76 1016.30 1015.72 1015.71 1015.39 1015.02 1014.05 1013.50 1013.46 1013.72 1014.40 1014.66 1014.96 1015.10 1015.36 1015.23 1015.37 1015.62 1015.95 1016.44 1016.61 1016.61 1016.75 1016.70 1017.03 1017.14 1017.31 1017.36 1017.25 1016.96 1016.93 1016.62 1016.17 1016.14 1016.16 1016.26
1015.52 1015.82 1015.79 1015.96 1016.20 1016.44 1016.69 1016.73 1016.82 1016.46 1016.12 1016.39 1015.79 1015.29 1014.61 1014.23 1014.47 1014.72 1014.77 1015.21 1015.18 1015.46 1015.76 1016.11 1016.22 1016.13 1016.35 1016.61 1016.78 1016.90 1016.71 1016.61 1016.71 1016.63 1016.51 1016.68 1016.67 1016.57 1016.44 1015.99 1015.79 1015.50 1015.33 1015.33
1015.85 1015.94 1015.85 1016.14 1016.66 1016.79 1016.83 1016.94 1017.15 1017.46 1016.95 1016.59 1016.39 1015.86 1015.31 1014.88 1014.78 1015.14 1015.38 1015.67 1015.93 1015.95 1016.15 1016.32 1016.33 1016.40 1016.56 1016.77 1016.69 1016.58 1016.35 1016.34 1016.35 1016.42 1016.46 1016.48 1016.60 1016.53 1016.34 1015.76 1015.46 1014.80 1014.52 1014.36
1016.31 1016.19 1016.25 1016.57 1016.82 1017.11 1017.14 1016.93 1017.40 1017.73 1018.07 1017.66 1017.25 1017.09 1016.20 1015.70 1015.52 1015.63 1015.98 1016.23 1016.29 1016.03 1015.92 1016.02 1016.20 1016.36 1016.51 1016.34 1016.43 1016.44 1016.57 1016.56 1016.42 1016.52 1016.45 1016.62 1016.65 1016.42 1015.50 1014.95 1014.45 1014.03 1013.92 1013.71
1016.88 1016.60 1016.78 1016.92 1017.08 1017.14 1017.28 1017.13 1017.70 1018.01 1018.56 1018.63 1018.30 1018.04 1017.18 1016.12 1015.93 1015.98 1016.15 1016.19 1015.94 1015.76 1015.81 1015.88 1015.87 1016.08 1016.26 1016.55 1016.63 1016.65 1016.57 1016.53 1016.60 1016.59 1016.49 1016.43 1016.17 1015.66 1014.97 1014.72 1014.57 1014.08 1013.75 1013.50
1017.54 1017.02 1017.10 1017.15 1017.19 1017.37 1017.55 1017.73 1018.37 1018.96 1019.52 1019.89 1019.42 1018.92 1018.29 1017.00 1016.48 1016.28 1016.10 1016.00 1016.17 1016.15 1015.97 1015.95 1016.40 1016.56 1016.60 1016.86 1017.01 1016.95 1016.90 1016.76 1016.50 1016.44 1016.06 1016.16 1015.97 1015.33 1014.98 1014.51 1014.21 1013.71 1013.41 1013.25
1018.84 1018.30 1017.80 1017.52 1017.72 1017.85 1018.38 1018.97 1020.07 1021.17 1021.36 1021.39 1020.11 1019.36 1018.29 1017.13 1016.53 1016.33 1016.42 1016.56 1016.39 1016.38 1016.46 1016.62 1016.82 1017.10 1017.35 1017.59 1017.59 1017.51 1017.34 1017.10 1016.83 1016.29 1015.87 1015.69 1015.42 1015.16 1014.83 1014.37 1014.08 1013.88 1013.72 1013.71
1020.41 1019.43 1018.76 1018.37 1018.56 1018.83 1019.35 1020.29 1021.73 1022.98 1023.90 1022.95 1020.85 1019.89 1018.23 1017.25 1016.82 1016.76 1016.65 1016.88 1016.92 1016.80 1016.97 1017.40 1017.69 1017.87 1018.09 1018.15 1017.97 1017.76 1017.54 1017.10 1016.54 1016.18 1015.92 1015.55 1015.27 1015.11 1014.74 1014.38 1014.01 1013.87 1014.08 1014.33
1021.14 1020.29 1019.40 1019.05 1018.90 1019.15 1019.76 1020.90 1021.94 1023.54 1025.24 1024.95 1022.35 1020.38 1018.62 1017.76 1017.54 1017.54 1017.59 1017.40 1017.84 1018.22 1018.16 1018.34 1018.28 1018.38 1018.59 1018.43 1018.03 1017.78 1017.26 1016.80 1016.73 1016.72 1016.42 1015.95 1015.61 1015.27 1014.76 1014.39 1014.17 1014.21 1014.31 1014.69
1021.80 1021.54 1020.51 1019.68 1019.31 1019.54 1019.97 1021.12 1022.34 1023.91 1025.69 1025.55 1023.23 1021.20 1019.37 1018.41 1018.32 1017.77 1018.14 1018.42 1018.83 1018.94 1018.91 1019.00 1018.88 1018.73 1018.51 1018.28 1017.99 1017.74 1017.44 1017.33 1017.08 1016.54 1016.22 1015.92 1015.55 1015.26 1014.92 1014.59 1014.36 1014.39 1014.73 1014.78
1022.01 1022.44 1021.67 1020.90 1020.74 1020.72 1021.00 1022.02 1023.27 1024.44 1025.60 1025.54 1024.29 1021.77 1019.26 1019.13 1019.10 1018.91 1019.18 1019.24 1019.29 1019.35 1019.33 1019.37 1019.16 1018.85 1018.58 1018.29 1018.13 1017.85 1017.56 1017.22 1016.97 1016.63 1016.22 1015.78 1015.25 1015.14 1015.06 1014.82 1014.77 1014.76 1015.00 1014.96
1022.63 1023.28 1023.25 1022.63 1021.60 1021.29 1021.58 1022.89 1023.78 1025.20 1025.99 1025.81 1024.89 1021.75 1019.36 1019.45 1019.45 1019.45 1019.66 1019.58 1019.47 1019.36 1019.37 1019.10 1018.75 1018.75 1018.62 1018.75 1018.09 1017.68 1017.48 1017.25 1017.04 1016.55 1015.96 1015.51 1015.21 1014.96 1015.07 1014.86 1014.80 1014.98 1014.89 1014.95
1022.92 1024.02 1024.37 1023.41 1022.76 1022.05 1022.54 1023.14 1023.96 1025.14 1025.71 1025.60 1024.89 1021.77 1019.57 1019.12 1019.74 1019.99 1020.01 1019.78 1019.66 1019.37 1019.13 1018.92 1018.79 1018.74 1018.38 1018.54 1018.35 1017.40 1017.09 1017.09 1016.85 1016.40 1015.95 1015.44 1015.11 1015.21 1015.36 1015.49 1015.12 1015.16 1015.24 1015.17
1023.21 1024.56 1025.14 1025.22 1024.53 1023.94 1023.39 1023.49 1023.80 1024.62 1025.27 1024.72 1023.34 1021.58 1020.61 1020.36 1020.35 1020.21 1020.08 1019.84 1019.66 1019.37 1018.99 1018.73 1018.77 1018.52 1018.22 1018.11 1017.80 1016.94 1016.84 1016.76 1016.40 1016.05 1015.66 1015.37 1015.20 1015.09 1015.47 1015.69 1015.89 1015.82 1015.62 1015.52
1024.22 1025.32 1025.53 1025.44 1025.08 1024.58 1023.63 1023.38 1023.12 1023.74 1023.54 1023.95 1022.26 1021.73 1020.76 1020.52 1020.61 1020.45 1020.20 1019.97 1019.71 1019.15 1018.66 1018.49 1018.50 1018.11 1017.59 1017.36 1017.04 1016.91 1016.79 1016.59 1016.27 1015.95 1015.81 1015.68 1015.70 1015.52 1015.92 1016.04 1016.04 1015.77 1015.66 1015.29
1025.32 1026.03 1026.39 1025.86 1025.43 1024.72 1023.64 1022.79 1022.78 1022.58 1022.38 1022.34 1021.87 1021.25 1020.32 1020.52 1020.61 1020.57 1020.24 1019.90 1019.55 1019.14 1018.48 1018.36 1018.13 1017.74 1017.37 1017.10 1016.90 1016.88 1016.70 1016.60 1016.44 1016.29 1016.17 1016.08 1016.24 1016.26 1016.24 1016.30 1016.19 1016.05 1016.11 1015.89
1026.32 1027.23 1027.99 1027.43 1026.67 1025.41 1023.56 1021.88 1021.75 1021.80 1021.58 1021.60 1021.64 1020.75 1020.56 1020.62 1020.52 1020.22 1019.70 1019.58 1019.15 1018.56 1018.41 1018.31 1018.00 1017.82 1017.57 1017.35 1017.36 1017.13 1016.88 1016.58 1016.40 1016.32 1016.12 1016.10 1016.21 1015.94 1016.20 1016.34 1016.19 1016.07 1015.97 1015.97
1026.69 1027.81 1028.45 1028.25 1027.37 1026.21 1022.06 1021.24 1020.94 1021.06 1020.86 1020.53 1020.60 1020.36 1020.46 1020.41 1019.88 1019.84 1019.52 1019.29 1019.22 1018.95 1018.74 1018.46 1018.13 1017.62 1017.63 1017.57 1017.33 1017.14 1016.79 1016.58 1016.84 1016.83 1016.76 1016.48 1016.15 1016.07 1016.10 1016.29 1016.24 1016.17 1016.19 1016.18
1026.56 1027.87 1028.74 1028.56 1027.54 1025.20 1022.51 1020.72 1020.37 1020.32 1020.20 1019.80 1019.90 1020.18 1020.38 1020.09 1019.97 1019.52 1018.88 1019.14 1019.07 1018.93 1018.67 1018.71 1018.77 1018.14 1017.65 1017.45 1017.50 1017.53 1017.31 1017.38 1017.16 1017.30 1017.27 1016.88 1016.62 1016.37 1016.18 1016.31 1016.43 1016.39 1016.41 1016.28
1027.42 1027.69 1028.24 1028.55 1027.58 1025.20 1021.96 1020.51 1020.25 1020.33 1020.27 1019.74 1020.17 1020.31 1020.32 1020.22 1020.01 1019.25 1019.56 1019.67 1019.82 1019.24 1018.79 1018.65 1018.19 1017.90 1018.02 1017.76 1017.74 1017.66 1017.61 1017.65 1017.31 1017.00 1017.07 1017.04 1017.00 1016.93 1016.67 1016.62 1016.61 1016.53 1016.49 1016.30
1027.55 1028.11 1028.01 1027.46 1026.61 1024.11 1021.03 1020.41 1020.18 1020.63 1020.50 1019.87 1020.14 1020.20 1020.23 1020.27 1019.74 1019.74 1019.34 1019.38 1019.26 1018.50 1018.24 1018.66 1018.44 1018.30 1017.97 1017.79 1017.85 1017.73 1017.37 1017.76 1017.71 1017.24 1017.33 1017.33 1017.35 1017.18 1016.94 1016.86 1016.72 1016.66 1016.52 1016.44
1026.81 1027.12 1026.90 1026.53 1025.61 1022.88 1020.34 1020.20 1020.33 1020.11 1019.68 1019.84 1019.82 1019.84 1019.79 1019.70 1019.62 1019.88 1020.07 1019.29 1018.88 1019.62 1019.22 1018.91 1018.57 1018.20 1017.82 1017.81 1017.80 1017.69 1017.76 1017.90 1017.73 1017.68 1017.70 1017.74 1017.64 1017.45 1017.21 1017.09 1016.90 1016.74 1016.70 1016.57
1025.58 1024.64 1024.19 1024.27 1022.51 1020.71 1020.13 1019.74 1019.49 1019.68 1019.53 1019.60 1019.83 1020.02 1020.07 1020.19 1020.41 1020.26 1019.35 1018.81 1018.52 1018.67 1018.95 1018.90 1018.73 1018.08 1017.58 1017.63 1017.98 1017.85 1017.91 1017.79 1017.84 1017.98 1017.98 1017.97 1017.79 1017.55 1017.40 1017.26 1017.03 1016.87 1016.75 1016.61
1024.15 1023.35 1023.10 1022.58 1021.07 1019.90 1019.78 1019.25 1019.00 1019.11 1019.29 1019.83 1020.14 1020.44 1020.64 1021.27 1020.35 1019.50 1019.16 1019.31 1018.75 1018.45 1018.66 1018.82 1018.77 1018.13 1017.69 1017.57 1017.69 1017.50 1017.65 1017.73 1017.90 1018.02 1018.06 1017.99 1017.88 1017.72 1017.53 1017.27 1017.02 1016.92 1016.68 1016.49
1022.90 1022.61 1021.90 1021.03 1020.38 1019.65 1019.44 1019.00 1019.23 1019.54 1019.47 1019.88 1020.49 1020.90 1020.61 1019.65 1019.04 1018.81 1018.73 1018.74 1018.72 1018.52 1018.47 1018.59 1018.44 1018.20 1017.69 1017.42 1017.29 1017.27 1017.39 1017.62 1017.89 1018.05 1018.08 1018.03 1017.94 1017.85 1017.60 1017.27 1017.04 1016.81 1016.52 1016.31
1021.76 1020.82 1020.90 1019.37 1019.14 1019.11 1018.78 1019.24 1019.47 1020.05 1020.41 1020.64 1020.46 1019.71 1019.21 1019.26 1019.00 1018.68 1018.77 1018.62 1018.51 1018.58 1018.17 1018.26 1018.21 1017.92 1017.58 1017.31 1017.31 1017.16 1017.21 1017.57 1017.89 1018.00 1018.01 1018.03 1017.99 1017.83 1017.62 1017.35 1017.01 1016.67 1016.34 1016.01
Thickness
5680 5663 5657 5667 5668 5666 5663 5655 5648 5658 5671 5665 5665 5661 5676 5682 5684 5679 5671 5669 5666 5667 5663 5661 5659 5655 5651 5644 5638 5632 5626 5620 5611 5606 5602 5599 5595 5591 5587 5584 5581 5576 5571 5566
5665 5659 5674 5672 5669 5664 5658 5654 5648 5654 5663 5659 5661 5661 5669 5674 5675 5670 5665 5660 5661 5659 5654 5650 5647 5648 5643 5637 5631 5624 5620 5615 5607 5602 5599 5594 5589 5585 5581 5576 5571 5567 5563 5557
5655 5669 5674 5668 5655 5650 5651 5652 5649 5645 5649 5659 5654 5657 5660 5668 5668 5664 5662 5655 5651 5647 5642 5642 5640 5639 5634 5628 5624 5620 5616 5611 5604 5597 5589 5583 5579 5573 5570 5569 5564 5563 5559 5554
5664 5668 5663 5654 5654 5652 5640 5658 5651 5644 5639 5630 5647 5627 5645 5654 5656 5655 5646 5641 5642 5643 5644 5640 5636 5633 5628 5626 5622 5614 5607 5601 5596 5588 5583 5575 5569 5566 5566 5563 5559 5556 5551 5545
5658 5659 5651 5646 5649 5654 5645 5651 5644 5646 5634 5632 5632 5620 5632 5643 5646 5642 5638 5637 5638 5641 5640 5637 5634 5630 5623 5614 5608 5600 5594 5588 5581 5574 5567 5561 5557 5556 5557 5553 5547 5545 5541 5535
5649 5662 5656 5651 5650 5651 5651 5645 5637 5632 5625 5605 5624 5617 5610 5622 5627 5629 5631 5630 5628 5628 5628 5628 5620 5612 5608 5599 5591 5586 5579 5573 5568 5562 5560 5552 5546 5546 5542 5539 5533 5531 5525 5518
5633 5639 5645 5648 5637 5640 5634 5622 5592 5593 5584 5590 5617 5608 5608 5624 5623 5623 5619 5615 5615 5615 5612 5609 5605 5595 5588 5578 5572 5569 5564 5559 5555 5554 5551 5545 5539 5533 5526 5522 5517 5511 5505 5498
5604 5605 5630 5637 5633 5627 5625 5616 5580 5580 5565 5578 5605 5599 5608 5623 5620 5613 5613 5612 5612 5608 5601 5593 5585 5576 5569 5565 5561 5555 5551 5549 5548 5543 5537 5531 5523 5516 5511 5505 5501 5493 5483 5472
5591 5608 5628 5633 5631 5629 5620 5598 5608 5574 5522 5545 5581 5603 5616 5614 5608 5605 5603 5601 5593 5587 5582 5577 5573 5566 5559 5555 5552 5548 5546 5543 5536 5526 5518 5513 5507 5500 5496 5489 5481 5472 5463 5451
5605 5593 5615 5622 5629 5625 5618 5612 5583 5560 5541 5554 5574 5585 5593 5603 5593 5601 5590 5584 5579 5575 5571 5565 5560 5556 5552 5546 5541 5535 5529 5519 5512 5508 5502 5497 5491 5485 5478 5471 5462 5451 5439 5431
5605 5593 5598 5611 5607 5603 5596 5581 5578 5571 5552 5551 5538 5570 5592 5589 5581 5584 5576 5573 5569 5564 5558 5552 5548 5543 5537 5530 5522 5518 5513 5507 5501 5494 5488 5482 5477 5469 5460 5451 5439 5429 5417 5409
5598 5578 5568 5592 5600 5604 5600 5579 5570 5548 5549 5535 5512 5562 5592 5583 5571 5569 5562 5559 5557 5556 5548 5542 5536 5530 5523 5515 5513 5508 5500 5492 5485 5480 5475 5468 5459 5449 5437 5429 5419 5406 5395 5385
5594 5566 5552 5572 5582 5592 5585 5578 5565 5543 5522 5535 5518 5548 5581 5579 5566 5558 5552 5550 5546 5543 5540 5535 5526 5521 5514 5503 5496 5494 5489 5479 5471 5463 5456 5449 5440 5429 5416 5403 5395 5383 5372 5363
5588 5568 5562 5546 5560 5567 5573 5571 5565 5550 5520 5533 5548 5555 5564 5558 5554 5549 5545 5542 5538 5533 5530 5524 5515 5505 5500 5493 5488 5486 5476 5465 5458 5449 5441 5430 5420 5409 5394 5381 5367 5356 5349 5343
5575 5564 5564 5561 5559 5560 5570 5565 5568 5554 5551 5536 5552 5548 5554 5548 5541 5537 5537 5531 5525 5525 5520 5511 5504 5498 5494 5487 5481 5470 5459 5450 5441 5431 5418 5407 5394 5383 5368 5356 5345 5339 5332 5329
5560 5540 5552 5558 5553 5552 5559 5561 5552 5552 5550 5542 5541 5542 5549 5542 5535 5529 5526 5521 5514 5508 5505 5499 5493 5487 5480 5473 5464 5452 5441 5428 5418 5408 5396 5383 5370 5358 5345 5333 5324 5321 5316 5313
5550 5519 5505 5524 5523 5521 5540 5549 5552 5551 5550 5545 5529 5539 5540 5533 5525 5518 5519 5509 5504 5503 5492 5485 5480 5470 5461 5451 5439 5430 5420 5409 5399 5389 5379 5366 5353 5345 5329 5320 5315 5310 5305 5299
5518 5505 5493 5488 5517 5515 5566 5561 5555 5544 5543 5543 5534 5533 5527 5520 5519 5510 5503 5493 5487 5480 5477 5472 5463 5453 5441 5431 5421 5410 5401 5391 5376 5363 5352 5345 5338 5328 5317 5308 5303 5297 5291 5285
5528 5509 5500 5506 5503 5516 5551 5552 5550 5543 5533 5538 5529 5523 5517 5512 5496 5495 5492 5483 5475 5468 5461 5448 5434 5429 5423 5413 5402 5389 5379 5367 5356 5343 5331 5323 5315 5309 5303 5296 5289 5283 5277 5272
5509 5491 5491 5494 5501 5508 5537 5542 5539 5530 5510 5525 5519 5509 5504 5489 5481 5489 5471 5459 5448 5445 5440 5431 5424 5415 5401 5391 5382 5370 5359 5348 5338 5329 5316 5305 5298 5291 5288 5282 5275 5270 5264 5261
5483 5491 5491 5481 5484 5495 5529 5530 5529 5502 5509 5513 5505 5499 5486 5476 5473 5463 5457 5448 5440 5436 5428 5414 5405 5394 5387 5377 5362 5352 5345 5329 5317 5310 5299 5291 5283 5277 5273 5268 5263 5257 5252 5245
5503 5489 5476 5480 5479 5488 5530 5523 5506 5508 5504 5499 5493 5482 5474 5468 5457 5445 5437 5434 5429 5410 5401 5394 5386 5380 5372 5361 5348 5340 5326 5312 5302 5293 5284 5276 5269 5264 5260 5254 5248 5242 5235 5228
5504 5510 5499 5496 5501 5520 5515 5515 5508 5498 5493 5486 5477 5470 5461 5449 5436 5429 5429 5425 5416 5403 5388 5378 5368 5365 5360 5348 5331 5319 5307 5298 5289 5279 5271 5262 5257 5251 5245 5239 5232 5226 5217 5208
5505 5514 5494 5498 5520 5519 5509 5510 5504 5493 5484 5474 5464 5453 5436 5419 5420 5423 5417 5402 5397 5388 5373 5362 5353 5348 5340 5330 5317 5307 5297 5288 5279 5269 5260 5253 5245 5238 5230 5223 5217 5209 5199 5192
5506 5501 5494 5501 5506 5505 5503 5499 5487 5479 5467 5452 5441 5429 5423 5422 5421 5414 5403 5391 5380 5370 5360 5348 5340 5331 5326 5318 5307 5298 5289 5279 5270 5260 5251 5242 5233 5225 5218 5211 5204 5197 5190 5183
5499 5502 5486 5498 5504 5494 5497 5478 5467 5453 5444 5434 5429 5428 5423 5412 5406 5398 5387 5376 5366 5355 5349 5338 5328 5321 5313 5305 5298 5292 5282 5270 5260 5252 5241 5229 5220 5212 5207 5202 5196 5189 5185 5181